CW9803 Weather Reports


time (UTC)temp
F
wind
direction
speed
knots
gust
knots
rain 1hr
in
rain 24hr
in
rain mn
in
humidity
%
barometer
mb
20260904090839 43 103 0.0 0.0 0.00 0.00 0.00 99 1009.3
20260904090336 43 103 0.0 0.0 0.00 0.00 0.00 99 1009.3
20260904085830 44 103 0.0 0.0 0.00 0.00 0.00 99 1009.0
20260904085325 44 101 0.0 0.0 0.00 0.00 0.00 99 1008.8
20260904084820 44 116 0.0 0.0 0.00 0.00 0.00 99 1009.2
20260904084316 44 116 0.0 0.0 0.00 0.00 0.00 99 1009.0
20260904083812 44 115 0.0 0.0 0.00 0.00 0.00 99 1008.7
20260904083308 44 115 0.0 0.0 0.00 0.00 0.00 99 1009.0
20260904082803 45 106 0.0 0.0 0.00 0.00 0.00 99 1008.7
20260904082258 45 113 0.0 0.0 0.00 0.00 0.00 99 1008.7
20260904081753 45 123 0.0 0.0 0.00 0.00 0.00 99 1008.7
20260904081249 45 126 0.0 0.0 0.00 0.00 0.00 99 1008.7
20260904080744 45 126 0.0 0.0 0.00 0.00 0.00 99 1008.6
20260904080239 45 126 0.0 0.0 0.00 0.00 0.00 99 1008.7
20260904075736 45 125 0.0 0.0 0.00 0.00 0.00 99 1008.7
20260904075231 45 114 0.0 0.0 0.00 0.00 0.00 99 1008.6
20260904074730 46 152 0.0 0.0 0.00 0.00 0.00 99 1009.2
20260904074224 46 139 0.0 0.0 0.00 0.00 0.00 99 1008.8
20260904073720 46 146 0.0 0.0 0.00 0.00 0.00 99 1009.1
20260904073216 46 147 0.0 0.0 0.00 0.00 0.00 99 1008.8
20260904072711 46 174 0.9 1.7 0.00 0.00 0.00 99 1009.1
20260904072206 46 150 0.0 0.0 0.00 0.00 0.00 99 1009.1
20260904071702 46 148 0.0 0.9 0.00 0.00 0.00 99 1009.0
20260904071157 46 155 1.7 2.6 0.00 0.00 0.00 99 1009.1
20260904070656 46 153 1.7 1.7 0.00 0.00 0.00 99 1008.8
20260904070155 46 154 0.9 0.9 0.00 0.00 0.00 99 1009.1
20260904065650 46 170 1.7 1.7 0.00 0.47 0.47 99 1009.0
20260904065147 46 148 0.0 0.0 0.00 0.47 0.47 99 1008.8
20260904064642 46 114 0.0 0.0 0.00 0.47 0.47 99 1009.0
20260904064137 46 114 0.0 0.0 0.00 0.47 0.47 99 1009.0
20260904063633 46 114 0.0 0.0 0.00 0.47 0.47 99 1008.7
20260904063128 46 114 0.0 0.0 0.00 0.47 0.47 99 1008.6
20260904062624 46 114 0.0 0.0 0.00 0.47 0.47 99 1008.4
20260904062120 46 113 0.0 0.0 0.00 0.47 0.47 99 1008.5
20260904061615 46 120 0.0 0.0 0.00 0.47 0.47 99 1008.6
20260904061112 46 118 0.0 0.0 0.00 0.47 0.47 99 1008.3
20260904060608 46 120 0.0 0.0 0.00 0.47 0.47 99 1008.5
20260904060103 46 148 0.0 0.0 0.00 0.47 0.47 99 1008.5
20260904055558 46 148 0.0 0.0 0.00 0.47 0.47 98 1008.7
20260904055053 46 147 0.0 0.0 0.00 0.47 0.47 98 1008.7
20260904054549 46 142 0.0 0.0 0.00 0.47 0.47 98 1009.1
20260904054045 46 125 0.0 0.0 0.00 0.47 0.47 98 1008.8
20260904053544 46 125 0.0 0.0 0.00 0.47 0.47 98 1008.6
20260904053040 46 123 0.0 0.0 0.00 0.47 0.47 98 1008.6
20260904052536 46 120 0.0 0.0 0.00 0.47 0.47 97 1008.6
20260904052031 47 130 0.0 0.0 0.00 0.47 0.47 97 1008.6
20260904051528 47 144 0.0 0.0 0.05 0.47 0.47 97 1008.6
20260904051027 47 139 0.0 0.0 0.05 0.47 0.47 97 1008.6
20260904050523 46 138 0.0 0.0 0.00 0.46 0.46 97 1008.6
20260904050019 46 139 0.0 0.0 0.00 0.46 0.46 96 1008.7
20260904045514 47 143 0.0 0.0 0.00 0.46 0.46 96 1009.0
20260904045009 47 145 0.0 0.0 0.00 0.46 0.46 96 1009.2
20260904044504 47 146 0.0 0.0 0.07 0.46 0.46 96 1009.2
20260904044001 47 173 0.0 0.0 0.00 0.45 0.45 96 1009.3
20260904043457 47 154 1.7 1.7 0.05 0.45 0.45 96 1009.0
20260904042952 47 141 0.0 0.9 0.05 0.45 0.45 96 1009.2
20260904042448 47 135 0.0 0.0 0.07 0.44 0.44 95 1009.1
20260904041942 47 138 0.0 0.0 0.07 0.44 0.44 95 1009.3
20260904041434 47 138 0.0 0.0 0.05 0.43 0.43 95 1009.2
20260904040930 47 146 0.0 0.0 0.12 0.43 0.43 95 1009.3
20260904040429 47 141 0.0 0.0 0.19 0.42 0.42 95 1009.4
20260904035926 47 141 0.0 0.0 0.12 0.41 0.41 94 1009.3
20260904035421 47 141 0.0 0.0 0.12 0.40 0.40 94 1009.3
20260904034920 47 143 0.0 0.0 0.12 0.39 0.39 94 1009.0
20260904034416 47 144 0.0 0.0 0.14 0.38 0.38 94 1009.2
20260904033912 47 144 0.0 0.0 0.12 0.37 0.37 93 1009.3
20260904033408 47 166 0.0 0.0 0.12 0.36 0.36 94 1009.2
20260904032903 47 146 0.0 0.0 0.12 0.35 0.35 94 1009.4
20260904032358 48 259 1.7 1.7 0.05 0.34 0.34 94 1009.4
20260904031852 48 147 0.0 0.0 0.07 0.33 0.33 93 1009.3
20260904031348 48 146 0.0 0.0 0.12 0.33 0.33 93 1009.1
20260904030844 48 140 0.0 0.0 0.05 0.32 0.32 92 1009.2
20260904030339 48 140 0.0 0.0 0.07 0.31 0.31 92 1009.0
20260904025835 48 140 0.0 0.0 0.07 0.31 0.31 92 1009.1
20260904025330 48 140 0.0 0.0 0.05 0.30 0.30 91 1009.1
20260904024830 48 137 0.0 0.0 0.05 0.30 0.30 90 1009.0
20260904024325 48 142 0.0 0.0 0.07 0.29 0.29 91 1009.0
20260904023822 48 145 0.0 0.0 0.07 0.29 0.29 90 1008.7
20260904023318 48 163 3.5 3.5 0.05 0.28 0.28 90 1008.7
20260904022817 49 155 1.7 1.7 0.05 0.28 0.28 89 1009.0
20260904022314 49 165 0.9 0.9 0.07 0.27 0.27 88 1009.1
20260904021811 49 86 0.9 1.7 0.07 0.27 0.27 88 1008.8
20260904021310 49 105 0.9 0.9 0.05 0.26 0.26 88 1008.6
20260904020805 50 118 0.0 0.0 0.05 0.26 0.26 86 1008.7
20260904020301 50 83 0.9 0.9 0.07 0.25 0.25 84 1008.7
20260904015759 50 150 0.9 0.9 0.07 0.25 0.25 86 1008.5
20260904015254 50 166 0.9 0.9 0.07 0.24 0.24 84 1008.6
20260904014752 50 136 0.0 0.0 0.07 0.24 0.24 84 1008.5
20260904014248 51 147 0.0 0.0 0.00 0.23 0.23 84 1008.5
20260904013744 51 137 0.0 0.0 0.00 0.23 0.23 81 1008.4
20260904013240 51 129 0.0 0.0 0.05 0.23 0.23 78 1008.5
20260904012736 51 129 0.0 0.0 0.05 0.23 0.23 78 1008.5
20260904012235 51 147 0.0 0.0 0.05 0.23 0.23 78 1008.3
20260904011734 52 130 0.0 0.0 0.05 0.23 0.23 78 1008.3
20260904011230 52 144 0.9 0.9 0.00 0.22 0.22 78 1008.3
20260904010725 52 142 0.0 0.0 0.00 0.22 0.22 78 1008.2
20260904010221 53 146 0.0 0.9 0.00 0.22 0.22 76 1008.3
20260904005716 53 166 2.6 3.5 0.00 0.22 0.22 71 1008.3
20260904005212 54 153 1.7 2.6 0.00 0.22 0.22 71 1008.2
20260904004712 54 137 1.7 2.6 0.00 0.22 0.22 70 1008.2
20260904004208 54 171 2.6 2.6 0.00 0.22 0.22 70 1008.3
20260904003702 54 147 0.9 0.9 0.00 0.22 0.22 72 1008.2
20260904003158 54 166 3.5 5.2 0.00 0.22 0.22 71 1007.9
20260904002649 54 136 3.5 6.1 0.00 0.22 0.22 71 1008.0
20260904002143 54 136 2.6 2.6 0.00 0.22 0.22 72 1007.7
20260904001638 54 166 3.5 3.5 0.00 0.22 0.22 71 1007.7
20260904001137 55 186 3.5 3.5 0.00 0.22 0.22 70 1007.8
20260904000633 55 144 3.5 5.2 0.00 0.22 0.22 70 1007.8
20260904000129 55 151 1.7 1.7 0.00 0.22 0.22 70 1007.8
20260903235628 56 145 1.7 2.6 0.00 0.22 0.22 65 1007.9
20260903235124 56 165 2.6 3.5 0.00 0.22 0.22 60 1008.0
20260903234619 56 166 5.2 6.1 0.00 0.22 0.22 58 1008.0
20260903234115 56 200 12.2 13.0 0.00 0.22 0.22 59 1007.7
20260903233611 56 153 2.6 2.6 0.00 0.22 0.22 62 1007.8
20260903233106 56 176 4.3 7.0 0.00 0.22 0.22 63 1007.8
20260903232601 55 147 3.5 6.1 0.00 0.22 0.22 65 1007.8
20260903232057 56 164 3.5 6.1 0.00 0.22 0.22 68 1007.8
20260903231551 56 120 5.2 6.1 0.00 0.22 0.22 66 1007.5
20260903231045 57 106 2.6 5.2 0.00 0.22 0.22 64 1007.4
20260903230542 57 159 3.5 3.5 0.00 0.22 0.22 60 1007.8
20260903230040 59 162 2.6 2.6 0.00 0.22 0.22 59 1007.7
20260903225538 59 142 0.9 2.6 0.00 0.22 0.22 59 1007.8
20260903225034 60 169 1.7 1.7 0.00 0.22 0.22 68 1007.8
20260903224530 59 168 0.0 0.9 0.00 0.22 0.22 72 1008.0
20260903224026 59 131 1.7 1.7 0.00 0.22 0.22 73 1007.9
20260903223525 59 134 1.7 1.7 0.00 0.22 0.22 73 1007.5
20260903223024 59 137 0.9 1.7 0.00 0.22 0.22 73 1007.8
20260903222519 60 169 0.0 0.0 0.00 0.22 0.22 71 1008.2
20260903222018 60 144 0.0 0.0 0.00 0.22 0.22 72 1008.1
20260903221514 60 144 0.9 0.9 0.00 0.22 0.22 70 1008.0
20260903221010 60 177 1.7 2.6 0.00 0.22 0.22 69 1007.9
20260903220504 60 152 0.0 0.9 0.00 0.22 0.22 69 1008.1
20260903220001 60 126 0.9 1.7 0.00 0.22 0.22 70 1007.8
20260903215459 60 145 0.9 0.9 0.00 0.22 0.22 69 1007.9
20260903214957 60 155 0.0 0.9 0.00 0.22 0.22 69 1007.7
20260903214452 60 151 0.0 0.0 0.00 0.22 0.22 71 1007.2
20260903213947 60 127 0.9 1.7 0.00 0.22 0.22 68 1007.3
20260903213443 61 120 0.0 0.0 0.00 0.22 0.22 63 1008.1
20260903212938 61 7 0.9 1.7 0.00 0.22 0.22 62 1008.1
20260903212434 61 117 0.0 0.0 0.00 0.22 0.22 63 1008.0
20260903211934 61 143 0.0 0.0 0.00 0.22 0.22 63 1008.0
20260903211429 61 137 0.0 0.0 0.00 0.22 0.22 63 1008.2
20260903210926 61 137 0.0 0.0 0.00 0.22 0.22 63 1008.2
20260903210425 61 147 0.9 0.9 0.00 0.22 0.22 66 1008.2
20260903205920 61 176 0.0 0.0 0.00 0.22 0.22 63 1008.0
20260903205420 60 142 0.0 0.0 0.00 0.22 0.22 64 1007.9
20260903204915 60 153 0.0 0.0 0.00 0.22 0.22 66 1007.9
20260903204411 60 145 0.0 0.0 0.00 0.22 0.22 66 1008.0
20260903203907 60 138 0.0 0.0 0.00 0.22 0.22 63 1008.1
20260903203402 60 158 0.0 0.0 0.00 0.22 0.22 62 1008.1
20260903202901 60 253 1.7 1.7 0.00 0.22 0.22 62 1007.9
20260903202358 60 259 1.7 1.7 0.00 0.22 0.22 61 1008.1
20260903201857 61 153 1.7 1.7 0.00 0.22 0.22 61 1008.0
20260903201353 60 195 0.9 1.7 0.00 0.22 0.22 63 1008.5
20260903200851 60 230 1.7 1.7 0.00 0.22 0.22 61 1008.4
20260903200347 60 144 0.0 0.0 0.00 0.22 0.22 60 1008.7
20260903195842 60 144 0.0 0.0 0.00 0.22 0.22 62 1008.6
20260903195338 61 213 3.5 5.2 0.00 0.22 0.22 59 1008.6
20260903194832 61 144 0.9 1.7 0.00 0.22 0.22 59 1008.6
20260903194328 61 129 1.7 1.7 0.00 0.22 0.22 58 1008.5
20260903193824 61 272 2.6 3.5 0.00 0.22 0.22 58 1008.5
20260903193320 61 126 1.7 2.6 0.00 0.22 0.22 59 1008.4
20260903192815 61 156 0.9 0.9 0.00 0.22 0.22 63 1008.5
20260903192310 60 154 0.9 0.9 0.00 0.22 0.22 62 1008.6
20260903191807 60 172 1.7 3.5 0.00 0.22 0.22 63 1008.7
20260903191302 60 172 3.5 3.5 0.00 0.22 0.22 62 1008.7
20260903190756 61 138 2.6 3.5 0.00 0.22 0.22 61 1008.7
20260903190251 61 196 0.9 1.7 0.00 0.22 0.22 60 1008.8
20260903185750 61 148 1.7 1.7 0.00 0.22 0.22 60 1008.8
20260903185245 61 150 0.0 0.0 0.00 0.22 0.22 58 1008.8
20260903184742 61 159 5.2 6.1 0.00 0.22 0.22 58 1008.8
20260903184237 60 144 0.9 0.9 0.00 0.22 0.22 62 1008.8
20260903183733 60 138 1.7 1.7 0.00 0.22 0.22 60 1009.1
20260903183227 60 149 3.5 3.5 0.00 0.22 0.22 64 1009.2
20260903182726 60 187 0.9 1.7 0.00 0.22 0.22 65 1009.2
20260903182221 60 200 3.5 5.2 0.00 0.22 0.22 66 1009.5
20260903181720 60 211 1.7 1.7 0.00 0.22 0.22 64 1009.2
20260903181215 59 145 2.6 2.6 0.00 0.22 0.22 67 1009.2
20260903180710 58 126 0.0 0.0 0.00 0.22 0.22 69 1009.4
20260903180204 59 178 1.7 1.7 0.00 0.22 0.22 67 1009.5
20260903175703 58 138 0.0 0.0 0.00 0.22 0.22 69 1009.2
20260903175202 58 133 0.0 0.0 0.00 0.22 0.22 71 1009.4
20260903174657 57 128 0.0 0.0 0.00 0.22 0.22 71 1009.4
20260903174151 57 120 0.9 0.9 0.00 0.22 0.22 73 1009.3
20260903173647 57 110 0.9 0.9 0.00 0.22 0.22 72 1009.3
20260903173143 58 88 0.9 0.9 0.00 0.22 0.22 72 1009.3
20260903172638 58 143 0.0 0.0 0.00 0.22 0.22 71 1009.4
20260903172133 59 312 3.5 3.5 0.00 0.22 0.22 72 1009.3
20260903171632 59 140 1.7 1.7 0.00 0.22 0.22 73 1009.3
20260903171129 60 28 2.6 2.6 0.00 0.22 0.22 70 1009.4
20260903170627 60 126 0.0 0.0 0.00 0.22 0.22 70 1009.6
20260903170123 58 138 0.0 0.0 0.00 0.22 0.22 73 1009.5
20260903165621 58 121 0.0 0.0 0.00 0.22 0.22 73 1009.5
20260903165116 58 187 1.7 1.7 0.00 0.22 0.22 73 1009.6
20260903164611 57 122 0.0 0.0 0.00 0.22 0.22 76 1009.4
20260903164106 57 89 1.7 1.7 0.00 0.22 0.22 77 1009.5
20260903163601 57 184 0.0 0.0 0.00 0.22 0.22 76 1009.7
20260903163057 57 84 0.9 0.9 0.00 0.22 0.22 76 1009.5
20260903162553 59 125 0.0 0.0 0.00 0.22 0.22 73 1009.5
20260903162049 58 126 0.9 0.9 0.00 0.22 0.22 71 1009.8
20260903161544 58 127 0.0 0.0 0.00 0.22 0.22 77 1009.5
20260903161040 58 142 0.0 0.0 0.00 0.22 0.22 79 1009.7
20260903160538 57 150 0.0 0.9 0.00 0.22 0.22 80 1009.4
20260903160033 56 109 0.0 0.0 0.00 0.22 0.22 81 1009.8
20260903155532 56 89 2.6 2.6 0.00 0.22 0.22 82 1009.6
20260903155028 54 140 0.0 0.0 0.00 0.22 0.22 89 1009.8
20260903154524 53 97 0.9 1.7 0.00 0.22 0.22 94 1009.6
20260903154020 53 90 1.7 2.6 0.00 0.22 0.22 98 1009.5
20260903153515 52 146 0.0 0.0 0.00 0.22 0.22 99 1009.9
20260903153011 52 147 0.0 0.0 0.00 0.22 0.22 99 1009.7
20260903152506 52 150 0.0 0.0 0.00 0.22 0.22 99 1010.0
20260903152002 51 150 0.0 0.0 0.00 0.22 0.22 99 1009.9
20260903151456 51 151 0.0 0.0 0.00 0.22 0.22 99 1010.0
20260903150952 51 144 0.0 0.0 0.00 0.22 0.22 99 1009.9
20260903150451 51 115 0.0 0.0 0.00 0.22 0.22 99 1009.9
20260903145946 51 114 0.0 0.0 0.00 0.22 0.22 99 1009.9
20260903145441 51 130 0.0 0.0 0.00 0.22 0.22 99 1009.8
20260903144936 51 131 0.0 0.0 0.00 0.22 0.22 99 1009.5
20260903144435 51 179 0.0 0.0 0.00 0.22 0.22 99 1009.6
20260903143931 51 151 0.0 0.0 0.00 0.22 0.22 99 1009.7
20260903143428 51 144 0.0 0.0 0.00 0.22 0.22 99 1009.3
20260903142923 50 144 0.0 0.0 0.00 0.22 0.22 99 1009.6
20260903142419 50 145 0.0 0.0 0.00 0.22 0.22 99 1009.6
20260903141915 50 147 0.0 0.0 0.00 0.22 0.22 99 1009.5
20260903141410 50 149 0.0 0.0 0.00 0.22 0.22 99 1009.5
20260903140906 50 140 0.0 0.0 0.00 0.22 0.22 99 1009.5
20260903140400 49 147 0.0 0.0 0.00 0.22 0.22 99 1009.4
20260903135856 49 146 0.0 0.0 0.00 0.22 0.22 99 1009.4
20260903135346 49 111 0.0 0.0 0.00 0.22 0.22 99 1009.5
20260903134844 49 112 0.0 0.0 0.00 0.22 0.22 99 1009.4
20260903134340 49 112 0.0 0.0 0.00 0.22 0.22 99 1009.3
20260903133837 49 112 0.0 0.0 0.00 0.22 0.22 99 1009.1
20260903133334 49 112 0.0 0.0 0.00 0.22 0.22 99 1009.3
20260903132828 49 112 0.0 0.0 0.00 0.22 0.22 99 1009.4
20260903132324 49 112 0.0 0.0 0.00 0.22 0.22 99 1009.3
20260903131819 49 112 0.0 0.0 0.00 0.22 0.22 99 1009.1
20260903131318 49 112 0.0 0.0 0.00 0.22 0.22 99 1009.1
20260903130812 49 112 0.0 0.0 0.00 0.22 0.22 99 1009.0
20260903130313 49 112 0.0 0.0 0.00 0.22 0.22 99 1009.0
20260903125811 49 111 0.0 0.0 0.00 0.22 0.22 99 1008.8
20260903125307 49 111 0.0 0.0 0.00 0.22 0.22 99 1008.5
20260903124806 50 111 0.0 0.0 0.00 0.22 0.22 99 1008.7
20260903124301 50 111 0.0 0.0 0.00 0.22 0.22 99 1008.8
20260903123800 50 113 0.0 0.0 0.00 0.22 0.22 99 1008.7
20260903123259 50 122 0.0 0.0 0.00 0.22 0.22 99 1008.6
20260903122758 50 151 0.0 0.0 0.00 0.22 0.22 99 1008.6
20260903122253 50 151 0.0 0.0 0.00 0.22 0.22 99 1008.6
20260903121751 50 151 0.0 0.0 0.00 0.22 0.22 99 1008.5
20260903121247 50 152 0.0 0.0 0.00 0.22 0.22 99 1008.6
20260903120742 50 152 0.0 0.0 0.00 0.22 0.22 99 1008.6
20260903120236 50 152 0.0 0.0 0.00 0.22 0.22 99 1008.6
20260903115735 50 152 0.0 0.0 0.07 0.22 0.22 99 1008.6
20260903115230 50 152 0.0 0.0 0.07 0.22 0.22 99 1008.6
20260903114724 50 152 0.0 0.0 0.00 0.21 0.21 99 1008.7
20260903114220 50 152 0.0 0.0 0.05 0.21 0.21 99 1008.6
20260903113715 50 153 0.0 0.0 0.05 0.21 0.21 99 1009.0
20260903113211 50 153 0.0 0.0 0.07 0.20 0.20 99 1008.5
20260903112707 50 154 0.0 0.0 0.07 0.20 0.20 99 1008.6
20260903112203 50 150 0.0 0.0 0.05 0.19 0.19 99 1008.5
20260903111701 50 149 0.0 0.0 0.12 0.19 0.19 99 1008.5
20260903111156 50 142 0.0 0.0 0.12 0.18 0.18 99 1008.5
20260903110653 50 141 0.0 0.0 0.17 0.17 0.17 99 1008.5
20260903110148 50 152 0.0 0.0 0.12 0.16 0.16 99 1008.4
20260903105642 50 153 0.0 0.0 0.07 0.14 0.14 99 1008.4
20260903105137 50 149 0.9 0.9 0.07 0.14 0.14 99 1008.6
20260903104637 50 182 1.7 2.6 0.05 0.13 0.13 99 1008.2
20260903104133 50 156 0.9 0.9 0.05 0.13 0.13 99 1008.3
20260903103628 50 147 0.9 0.9 0.07 0.12 0.12 99 1008.0
20260903103124 50 155 0.9 0.9 0.07 0.12 0.12 99 1008.0
20260903102620 50 150 0.9 1.7 0.00 0.11 0.11 99 1008.0
20260903102118 50 161 1.7 1.7 0.07 0.11 0.11 99 1008.3
20260903101613 50 147 0.0 0.0 0.07 0.11 0.11 99 1008.1
20260903101108 50 151 0.9 0.9 0.00 0.10 0.10 99 1008.1
20260903100603 51 156 0.0 0.9 0.00 0.10 0.10 99 1007.8
20260903095600 51 161 0.0 0.0 0.05 0.10 0.10 99 1007.9
20260903095055 50 149 0.0 0.0 0.05 0.10 0.10 99 1007.9
20260903094555 50 150 0.0 0.0 0.00 0.09 0.09 99 1008.2
20260903094050 50 154 0.0 0.0 0.07 0.09 0.09 99 1007.9
20260903093550 50 152 0.0 0.0 0.19 0.09 0.09 99 1007.8
20260903093046 52 152 0.9 0.9 0.12 0.08 0.08 99 1007.7
20260903092545 52 148 0.0 0.0 0.12 0.07 0.07 99 1007.9
20260903092040 52 145 0.9 0.9 0.12 0.06 0.06 99 1007.7
20260903091538 52 138 0.0 0.0 0.07 0.05 0.05 99 1007.7